Regional Weather Roundup
Issued by NWS Kansas City/Pleasant Hill, MO

Home | Current Version | Previous Version | Graphics & Text | Print | Product List | Glossary Off
Versions: 1 2 3 4 5 6 7 8 9 10 11 12 13 14 15 16 17 18 19 20 21 22 23 24 25 26 27

000
ASUS43 KEAX 212010
RWREAX

WEATHER ROUNDUP FOR EASTERN KANSAS AND NORTHWEST MISSOURI
NATIONAL WEATHER SERVICE KANSAS CITY/PLEASANT HILL MO
200 PM CST SAT JAN 21 2017

KSZ040-057-103>105-MOZ028-029-037-043-212100-
...KANSAS CITY METROPOLITAN AREA...

CITY           SKY/WX    TMP DP  RH WIND       PRES   REMARKS
K.C. INTL      MOSUNNY   52  41  66 S9        29.48F
K.C. DOWNTOWN  SUNNY     54  42  64 SW8       29.48F
LEES SUMMIT    SUNNY     55  41  59 S9        29.48F
OLATHE - IXD   SUNNY     55  41  59 S13       29.48F
OLATHE - OJC   SUNNY     53  40  61 S12       29.48F
LAWRENCE       SUNNY     55  42  61 S8        29.47F

$$

MOZ001>008-011>017-020>025-030>033-038>040-044>046-053-054-212100-
...NORTHERN AND CENTRAL MISSOURI...

CITY           SKY/WX    TMP DP  RH WIND       PRES   REMARKS
ST. JOSEPH     SUNNY     50  44  80 S7        29.48F
MOSBY          CLEAR     52  41  66 S5        29.49F
WARRENSBURG    SUNNY     55  39  54 SW7       29.48F
WHITEMAN AFB   MOSUNNY   58  40  51 VRB7      29.48F
CLINTON        SUNNY     59  39  47 SW7       29.50F
SEDALIA        SUNNY     59  41  51 SW9       29.50F
WARSAW         NOT AVBL
CHILLICOTHE      N/A     47  43  86 S5        29.50F
KIRKSVILLE     CLOUDY    45  42  89 SW13      29.50S

$$

MOZ041-047>049-056>058-063>065-088>090-097-212100-
...EASTERN AND SOUTHERN MISSOURI...

CITY           SKY/WX    TMP DP  RH WIND       PRES   REMARKS
ST. LOUIS INTL MOSUNNY   71  38  29 SW12      29.50F
SPIRIT OF STL  MOSUNNY   67  39  35 SW13G20   29.48F
COLUMBIA       MOSUNNY   62  39  42 SW12      29.50F
JEFFERSON CITY MOSUNNY   63  36  36 W8        29.49F
ROLLA          MOSUNNY   64  35  34 SW12      29.49F
OSAGE BEACH    MOSUNNY   64  36  35 S9        29.50F
SPRINGFIELD    CLOUDY    62  38  40 S7        29.49F
BRANSON        CLOUDY    66  43  42 S8        29.51F
JOPLIN         CLOUDY    61  36  39 S7        29.48F
WEST PLAINS    CLOUDY    66  43  43 S10       29.54F

$$

IAZ060-094-KSZ022-034>040-054-083-096-NEZ052-066-093-212100-
...KANSAS...SOUTHEAST NEBRASKA AND IOWA...

CITY           SKY/WX    TMP DP  RH WIND       PRES   REMARKS
TOPEKA         SUNNY     55  41  59 VRB6      29.46F
MANHATTAN      SUNNY     54  40  59 SW3       29.45F
EMPORIA        CLOUDY    54  38  54 SE8       29.45F
CHANUTE        LGT RAIN  54  38  54 E3        29.47F
WICHITA        CLOUDY    50  38  63 E6        29.41F
OMAHA          MOSUNNY   50  38  63 S8        29.43S
LINCOLN        SUNNY     51  38  60 SW9       29.45F
FALLS CITY     SUNNY     53  40  61 SW7       29.44F
LAMONI         CLOUDY    44  41  89 SW10      29.46F
DES MOINES     CLOUDY    47  41  80 SW17      29.44S

$$





USA.gov is the U.S. government's official web portal to all federal, state and local government web resources and services.